Other Surface Observations
Issued by NWS Charleston, SC

Current Version | Previous Version | Text Only | Print | Product List | Glossary On
Versions: 1 2 3 4 5 6 7 8 9 10 11 12 13 14 15 16 17 18 19 20 21 22 23 24 25 26 27 28 29 30 31 32 33 34 35 36 37 38 39 40 41 42 43 44 45 46 47 48 49 50
000
SXUS52 KCHS 251613
OSOCHS

Marine Observations
National Weather Service Charleston SC
1200 PM EDT WED APR 25 2018

...Downtown Charleston and Harbor...

CITY           SKY/WX    TMP DP  RH WIND       PRES   REMARKS
Waterfront Prk   N/A     71  56  58 W7G15     29.67S

...Lake Moultrie...

CITY           SKY/WX    TMP DP  RH WIND       PRES   REMARKS
Pinopolis        N/A     66  61  82 VRB2      29.74S

...Lake and Supplemental Coastal Observations...

STATION/POSITION TIME  TEMP    WIND        PRES    WAVE   SWELL
                       AIR SEA DIR/SP/G            HT/PER HT/PER/DIR
                 (UTC) (F)     (DEG/KT/KT) (MB)    (FT/S) (FT/S/D)
Fort Pulaski     1542   69 66  300/ 14/ 17 1011.5F
Sapelo Island    1500   70     290/  7     1013.0
Winyah Bay       1445   70     260/  6     1009.0
Lake Murray      1520   67     280/  5/  9 1009.1
ACE Basin NERRS  1445   70     350/  4       N/A


...C-MAN and Buoy Observations...

STATION/POSITION TIME  TEMP    WIND        PRES    WAVE   SWELL
                       AIR SEA DIR/SP/G            HT/PER HT/PER/DIR
                 (UTC) (F)     (DEG/KT/KT) (MB)    (FT/S) (FT/S/D)
Buoy 41004       1550      69  230/ 14/ 17 1010.5S   6/ 9   5/110/ 9
Buoy 41008       1550   65 66  220/  8/ 10 1012.3F   3/ 9   3/ 80/ 9
Folly Beach CMAN 1600   67     210/ 16/ 18 1010.7F
Pritchards Islan NOT AVBL
Capers NS Buoy   1508   65 65  240/ 14/ 16 1010.0F
Fripp NS Buoy    1508   65 66  260/ 10/ 14 1010.7S
5E St. Marys GA  1600      69                N/A     2/ 9


STATION/POSITION TIME  TEMP    WIND        PRES    WAVE   SWELL
                       AIR SEA DIR/SP/G            HT/PER HT/PER/DIR
                 (UTC) (F)     (DEG/KT/KT) (MB)    (FT/S) (FT/S/D)
Frying Pan Buoy  1550   66 70  230/ 14/ 16 1009.6S   7/10   7/110/10
Buoy 41025       1600   69 70  240/ 14/ 17 1007.8
Cape Lookout NC  1600          230/ 11/ 14 1008.3R
Buoy 41002       1600   73 73  190/ 17/ 21 1010.2
Buoy 41010       1550   73 75  280/ 12/ 16 1014.2F   6/ 8   5/ 80/ 8
St Augustine FL  1600   73 68  270/  6/  9 1014.3F

$$




USA.gov is the U.S. government's official web portal to all federal, state and local government web resources and services.